shen-yang , China , ASIA

  • Monday
    November 20

      Sunny

      18 °F

      Southwest

      3~4L 

  • Tuesday
    November 21

    Cloudy  Cloudy

    48 °F  23 °F

    Southwest  Southwest

    5~6L   3~4L 

  • Wednesday
    November 22

    Sunny  Sunny

    37 °F  18 °F

    Northwest  Northwest

    3~4L   3~4L 

  • Thursday
    November 23

    Sunny  Sunny

    36 °F  16 °F

    Northwest  Northwest

    3~4L   3~4L 

  • Friday
    November 24

    Sunny  Sunny

    32 °F  18 °F

    Northwest  Southwest

    3~4L   3~4L 

  • Saturday
    November 25

    Light snow  Overcast

    34 °F  16 °F

    Southwest  Northwest

    3~4L   3~4L 

  • Sunday
    November 26

    Sunny  Sunny

    25 °F  12 °F

    Northwest  Southwest

    4~5L   3~4L 

Date   Weather Temperature Humidity Total_rain Visibility Wind
23:00 Sunny 19°F 79.5% 0mm 999.9km Southeast  2.7m/s
02:00 Sunny 18°F 71.6% 0mm 999.9km Southeast  3.8m/s
05:00 Sunny 20°F 69% 0mm 999.9km Southeast  5.2m/s
08:00 Sunny 30°F 68.5% 0mm 999.9km Southwest  6.1m/s
11:00 Cloudy 45°F 61.4% 0mm 999.9km Southwest  6.2m/s
14:00 Cloudy 48°F 59.6% 0mm 999.9km Southwest  7.5m/s
17:00 Cloudy 43°F 61.4% 0mm 999.9km Southwest  6.6m/s
20:00 Cloudy 41°F 70.4% 0mm 999.9km Southwest  5.5m/s
23:00 Cloudy 33°F 66.1% 0mm 999.9km Northwest  4.2m/s
02:00 Cloudy 32°F 60.6% 0mm 999.9km Northwest  3.4m/s
05:00 Cloudy 30°F 59.4% 0mm 999.9km Northwest  3.0m/s
08:00 Cloudy 24°F 58.2% 0mm 999.9km Northwest  2.8m/s
11:00 Sunny 34°F 52% 0mm 999.9km Northwest  4.1m/s
14:00 Sunny 37°F 49.7% 0mm 999.9km Northwest  4.5m/s
17:00 Sunny 30°F 47% 0mm 999.9km Northwest  2.6m/s
20:00 Sunny 23°F 44.4% 0mm 999.9km Northwest  2.1m/s
23:00 Sunny 25°F 64.8% 0mm 999.9km Southwest  2.6m/s
02:00 Sunny 23°F 61.4% 0mm 999.9km Northwest  2.9m/s
05:00 Sunny 18°F 61.2% 0mm 999.9km Southwest  2.5m/s
08:00 Sunny 22°F 58.2% 0mm 999.9km Southwest  2.3m/s
11:00 Sunny 31°F 48.6% 0mm 999.9km Northwest  3.6m/s
14:00 Sunny 35°F 48.2% 0mm 999.9km Northwest  4.7m/s
17:00 Sunny 32°F 45.3% 0mm 999.9km Northwest  2.1m/s
20:00 Sunny 27°F 37.7% 0mm 999.9km Southwest  2.1m/s
23:00 Sunny 19°F 63.9% 0mm 999.9km Southwest  2.4m/s
02:00 Sunny 16°F 73.8% 0mm 999.9km Northwest  2.8m/s
05:00 Sunny 16°F 68.1% 0mm 999.9km Northwest  2.4m/s
08:00 Sunny 22°F 66.2% 0mm 999.9km Northwest  1.9m/s
11:00 Sunny 29°F 47% 0mm 999.9km Northwest  2.9m/s
14:00 Sunny 32°F 48.4% 0mm 999.9km Northwest  2.9m/s
17:00 Sunny 28°F 52.9% 0mm 999.9km Southwest  2.2m/s
20:00 Sunny 18°F 62.4% 0mm 999.9km Southeast  2.9m/s
23:00 Sunny 18°F 63.2% 0mm 999.9km Southeast  4.0m/s
02:00 Sunny 20°F 80.8% 0mm 999.9km Southwest  5.1m/s
05:00 Sunny 21°F 80.4% 0mm 999.9km Southwest  5.9m/s
08:00 Sunny 22°F 79.3% 0mm 999.9km Southwest  6.7m/s
11:00 Sleet 18°F 76.4% 0.3mm 999.9km Northeast  4.6m/s
14:00 Cloudy 33°F 76.2% 0mm 999.9km Southwest  7.7m/s
17:00 Overcast 31°F 67.1% 0mm 999.9km Northeast  3.0m/s
20:00 Sleet 18°F 58.5% 0.1mm 999.9km Southwest  5.3m/s
23:00 Overcast 23°F 62.3% 0mm 999.9km Northeast  0.9m/s
02:00 Overcast 24°F 79.8% 0mm 999.9km Northwest  2.8m/s
05:00 Overcast 24°F 67.9% 0mm 999.9km Northwest  2.6m/s
08:00 Overcast 20°F 63.2% 0mm 999.9km Northwest  4.0m/s
11:00 Sunny 21°F 58.8% 0mm 999.9km Southwest  3.4m/s
14:00 Sunny 22°F 65.5% 0mm 999.9km Northwest  3.8m/s
17:00 Sunny 17°F 58.4% 0mm 999.9km Southwest  4.9m/s
20:00 Sunny 16°F 52.6% 0mm 999.9km Northwest  1.3m/s
23:00 Sunny 14°F 70.6% 0mm 999.9km Southwest  5.0m/s
02:00 Sunny 13°F 78.8% 0mm 999.9km Northwest  1.9m/s
05:00 Sunny 16°F 72.3% 0mm 999.9km Southwest  2.7m/s